Temp
64 65 65 65 65 65 65 65 65 65 65 65 65 65 64 64 64 61 55 62 65 72 71 64 64 61 60 56 59 60 48 45 51 54 60 63 63 65 67 65 63 62 62 66 66
64 64 65 65 65 64 64 64 64 64 64 65 65 65 64 63 58 55 65 72 72 72 63 59 56 58 52 52 55 51 44 50 60 59 62 65 64 65 63 61 58 58 65 65 65
64 64 64 64 64 64 64 64 64 64 64 64 64 64 64 61 53 56 71 72 72 70 64 62 60 57 49 51 51 51 47 57 60 62 62 64 63 64 62 58 59 57 60 62 63
63 63 63 63 63 63 63 63 64 64 63 63 64 64 63 59 43 61 72 72 71 67 63 60 56 50 46 46 52 47 56 59 60 59 61 60 61 60 61 63 66 64 64 63 61
62 63 63 62 62 63 63 63 64 64 63 63 63 63 59 52 56 68 71 70 66 63 59 57 52 50 45 47 50 48 53 60 60 60 58 63 60 61 58 61 66 65 64 62 62
62 62 62 61 62 62 62 63 63 63 63 63 63 63 55 45 64 66 65 65 64 60 58 57 54 55 49 49 48 51 55 57 57 58 59 59 59 61 58 61 62 63 62 62 62
62 61 61 61 61 61 62 63 63 63 63 63 64 60 52 51 63 64 65 63 64 62 57 60 59 53 51 49 53 52 48 51 54 56 57 61 57 57 57 61 60 60 61 62 62
61 61 60 60 60 61 61 62 62 62 62 63 64 55 48 65 62 65 65 63 66 64 61 62 61 55 51 54 53 49 47 41 51 54 57 58 51 59 60 58 57 59 59 60 61
60 60 60 60 60 60 60 61 61 62 63 63 55 50 48 67 61 63 62 60 62 62 62 66 58 51 51 43 40 42 35 38 45 55 54 52 51 60 60 59 57 59 59 60 60
59 59 59 59 59 59 60 61 61 60 62 62 60 48 56 54 60 62 62 63 58 56 55 54 48 42 42 39 31 34 36 38 41 50 51 49 49 56 57 57 56 55 57 60 60
59 59 59 59 59 60 56 54 51 50 53 49 52 52 57 61 62 60 62 59 56 51 43 48 39 34 40 41 43 42 40 38 44 52 49 50 51 54 57 57 55 54 54 58 61
59 58 59 59 59 60 54 51 50 52 44 56 57 57 60 60 53 57 62 51 49 41 47 42 35 45 48 47 44 42 38 39 45 51 50 48 50 54 56 57 59 57 55 57 57
58 58 59 59 59 56 53 52 58 56 43 51 57 56 57 58 52 53 57 52 47 44 44 39 46 52 48 44 43 40 38 40 42 45 46 46 45 50 54 52 57 58 59 58 60
58 59 59 59 55 53 51 57 57 55 35 45 51 55 57 56 49 59 58 52 48 44 47 43 50 48 45 44 43 37 46 45 45 40 33 44 33 42 48 51 52 54 54 59 60
58 59 59 58 51 50 54 56 55 52 20 48 51 61 57 50 51 52 57 52 43 45 43 40 43 43 43 43 44 43 46 44 44 38 34 35 32 42 44 47 50 52 55 57 60
58 59 58 54 51 53 55 53 52 33 20 41 51 49 49 49 50 52 51 52 51 45 44 43 47 45 44 47 46 47 43 41 37 34 26 33 32 36 41 48 51 53 54 55 53
58 59 56 57 50 54 53 49 32 27 45 42 43 47 45 45 46 47 45 42 39 32 32 40 41 45 46 41 44 42 34 24 24 22 25 33 29 40 46 46 48 51 52 51 51
57 57 55 56 53 53 49 42 29 39 39 47 45 46 41 46 45 45 42 39 42 39 31 29 28 40 46 41 37 37 35 26 25 23 26 34 29 38 43 44 45 46 47 47 48
56 49 50 52 54 51 45 30 32 38 44 43 45 40 41 45 43 41 38 38 40 41 33 32 33 42 44 44 42 38 33 38 31 27 26 29 36 44 43 43 45 45 46 44 45
47 48 49 53 52 48 40 38 38 46 46 45 37 41 35 41 41 38 37 41 41 43 41 38 31 40 43 43 42 39 41 32 28 26 25 26 28 33 36 40 42 42 43 44 45
48 47 51 53 51 44 35 35 43 49 48 43 39 39 40 40 39 39 40 42 43 43 41 38 35 34 38 36 37 36 35 35 35 31 27 24 28 38 39 42 42 42 43 43 43
45 43 51 51 44 36 39 42 47 46 47 46 44 43 41 42 41 41 40 43 44 42 37 38 36 28 35 39 41 39 37 37 29 31 29 28 30 42 40 42 44 42 42 41 42
43 43 49 49 40 38 41 44 45 43 44 44 44 46 44 40 36 41 44 47 47 43 38 39 33 24 32 33 37 35 38 39 36 32 29 28 33 42 36 38 41 40 40 41 41
43 40 45 43 42 41 39 42 41 44 44 45 43 44 42 40 43 41 42 45 46 45 48 45 34 31 27 32 35 33 35 37 36 25 29 31 34 36 39 40 38 39 39 39 40
42 42 42 38 43 41 41 41 41 41 43 43 41 42 41 37 39 39 43 45 43 47 43 42 32 30 33 35 35 35 36 36 30 35 34 37 37 39 41 40 39 39 39 39 39
41 41 41 41 43 40 42 41 43 44 44 41 39 43 41 39 42 40 40 39 40 39 37 41 34 33 30 37 34 33 34 35 35 36 35 36 36 42 41 39 38 39 41 40 39
42 42 43 41 40 39 41 43 45 45 48 48 44 41 40 43 45 45 45 44 42 38 38 37 34 33 29 33 34 31 34 35 34 35 38 33 42 41 38 40 42 39 41 41 40
MSLP
1021.33 1021.08 1020.83 1020.53 1020.22 1020.05 1019.84 1019.47 1019.05 1018.64 1018.25 1017.90 1017.52 1017.21 1016.97 1016.75 1016.63 1016.57 1016.25 1015.69 1015.50 1015.13 1014.95 1014.75 1014.55 1014.49 1014.56 1014.55 1014.17 1013.99 1014.47 1014.10 1013.19 1012.65 1011.52 1010.40 1010.53 1010.72 1010.97 1011.61 1012.51 1012.95 1013.56 1013.98 1015.76
1021.20 1021.00 1020.75 1020.48 1020.27 1020.12 1019.87 1019.48 1019.14 1018.75 1018.34 1017.86 1017.54 1017.36 1017.20 1016.96 1016.92 1016.41 1015.94 1015.28 1015.29 1015.18 1015.05 1015.01 1015.00 1014.84 1014.98 1014.69 1014.34 1014.12 1014.09 1013.44 1012.44 1012.15 1011.57 1010.79 1010.67 1010.64 1011.23 1012.20 1013.17 1013.47 1013.75 1014.61 1015.83
1021.08 1020.98 1020.76 1020.53 1020.32 1020.08 1019.84 1019.49 1019.19 1018.84 1018.39 1017.88 1017.48 1017.29 1017.17 1017.15 1016.94 1016.08 1015.47 1015.31 1015.20 1015.06 1015.15 1015.16 1015.13 1015.07 1015.13 1014.86 1014.42 1014.10 1013.66 1013.02 1012.50 1011.92 1011.76 1011.22 1011.00 1010.88 1011.25 1012.23 1012.60 1013.24 1014.30 1015.11 1015.99
1021.07 1020.89 1020.75 1020.60 1020.35 1020.06 1019.81 1019.47 1019.14 1018.84 1018.47 1018.03 1017.64 1017.28 1016.98 1017.13 1016.92 1015.76 1015.34 1015.16 1015.10 1015.04 1015.19 1015.13 1015.13 1015.12 1015.16 1015.05 1014.44 1014.18 1013.36 1012.96 1012.47 1012.15 1012.17 1011.58 1011.58 1011.52 1011.32 1011.47 1011.70 1012.92 1013.26 1014.62 1015.80
1021.00 1020.84 1020.73 1020.62 1020.38 1020.09 1019.80 1019.36 1019.05 1018.79 1018.53 1018.16 1017.73 1017.35 1017.05 1016.88 1016.32 1015.62 1015.35 1015.09 1015.12 1015.18 1015.30 1015.34 1015.35 1015.28 1015.22 1014.97 1014.55 1014.20 1013.53 1012.97 1012.41 1012.15 1012.38 1011.70 1011.92 1011.95 1012.02 1011.77 1012.28 1013.44 1014.09 1014.84 1015.64
1020.91 1020.75 1020.61 1020.48 1020.30 1020.08 1019.78 1019.31 1019.01 1018.75 1018.45 1018.18 1017.89 1017.42 1017.28 1016.85 1015.89 1015.66 1015.45 1015.29 1015.25 1015.33 1015.37 1015.48 1015.51 1015.32 1015.40 1014.98 1014.61 1014.06 1013.56 1013.29 1012.94 1012.60 1012.55 1012.25 1012.08 1012.11 1012.53 1012.53 1013.16 1013.91 1014.50 1014.79 1015.27
1020.80 1020.69 1020.49 1020.25 1020.09 1019.88 1019.67 1019.33 1018.99 1018.70 1018.45 1018.20 1018.02 1017.88 1017.46 1016.77 1016.00 1015.78 1015.50 1015.36 1015.26 1015.37 1015.40 1015.33 1015.30 1015.37 1015.34 1014.96 1014.41 1014.07 1013.97 1013.68 1013.33 1013.02 1012.88 1012.48 1012.45 1012.40 1012.67 1013.06 1013.49 1014.27 1014.94 1015.22 1015.15
1020.69 1020.53 1020.34 1020.08 1019.83 1019.66 1019.49 1019.25 1018.91 1018.63 1018.44 1018.27 1018.07 1018.08 1017.25 1016.03 1015.84 1015.71 1015.49 1015.40 1015.27 1015.27 1015.32 1015.12 1015.05 1015.18 1015.36 1014.89 1014.42 1014.26 1014.30 1014.23 1013.45 1013.25 1012.80 1012.72 1012.42 1012.46 1012.95 1013.31 1013.86 1014.32 1014.95 1015.36 1015.28
1020.72 1020.45 1020.26 1020.02 1019.69 1019.49 1019.28 1019.08 1018.76 1018.47 1018.27 1018.20 1018.20 1018.01 1017.11 1015.96 1015.90 1015.75 1015.65 1015.68 1015.45 1015.34 1015.24 1015.12 1015.08 1015.40 1015.43 1015.48 1015.27 1014.99 1014.85 1014.49 1013.91 1013.29 1012.98 1013.08 1012.75 1012.44 1012.94 1013.43 1013.95 1014.39 1014.74 1015.08 1015.17
1020.78 1020.51 1020.33 1020.04 1019.69 1019.33 1018.92 1018.60 1018.44 1018.29 1017.93 1018.05 1018.00 1018.23 1016.92 1016.60 1016.17 1015.94 1015.62 1015.58 1015.65 1015.67 1015.60 1015.48 1015.79 1016.07 1016.27 1016.18 1016.15 1015.70 1015.11 1014.65 1014.09 1013.66 1013.44 1013.46 1013.21 1012.99 1013.13 1013.57 1013.82 1014.21 1014.50 1014.88 1014.61
1020.64 1020.43 1020.28 1020.00 1019.69 1019.33 1018.99 1018.55 1019.00 1018.78 1018.44 1018.48 1018.06 1017.70 1017.08 1016.50 1016.18 1015.94 1015.72 1015.76 1015.84 1016.09 1016.24 1016.08 1016.52 1016.57 1016.39 1016.30 1016.15 1015.89 1015.30 1014.99 1014.26 1013.52 1013.52 1013.51 1013.34 1013.07 1012.93 1013.42 1013.94 1014.39 1014.40 1014.48 1014.10
1020.67 1020.41 1020.25 1020.03 1019.68 1019.45 1019.46 1019.75 1020.06 1020.10 1019.31 1018.15 1017.71 1017.27 1016.80 1016.58 1016.41 1015.99 1015.86 1016.22 1016.32 1016.59 1016.41 1016.63 1016.66 1016.33 1016.08 1015.83 1015.85 1015.68 1015.46 1014.83 1014.13 1013.56 1013.88 1013.69 1013.36 1013.03 1013.00 1012.63 1012.97 1013.20 1014.01 1014.00 1014.05
1020.65 1020.40 1020.13 1020.02 1019.71 1019.65 1019.76 1020.06 1019.88 1019.90 1019.83 1018.34 1017.39 1016.91 1016.59 1016.62 1016.50 1016.20 1016.18 1016.33 1016.52 1016.63 1016.63 1016.67 1016.19 1015.69 1015.69 1015.71 1015.54 1015.39 1015.34 1014.92 1014.52 1014.08 1014.00 1014.10 1014.08 1013.49 1012.90 1012.95 1012.72 1012.85 1013.25 1013.94 1014.04
1020.53 1020.34 1020.10 1019.87 1020.06 1020.14 1020.20 1020.00 1019.88 1019.95 1020.00 1018.63 1017.30 1016.64 1016.49 1016.43 1016.62 1016.26 1016.21 1016.63 1016.76 1016.92 1016.76 1016.72 1016.18 1015.89 1015.69 1015.64 1015.56 1015.39 1015.13 1014.91 1014.73 1014.96 1015.03 1014.56 1014.60 1013.59 1013.24 1013.22 1012.87 1012.73 1013.10 1013.24 1013.58
1020.50 1020.32 1020.11 1019.71 1020.29 1020.36 1020.36 1019.96 1019.78 1020.02 1020.30 1018.51 1017.18 1016.35 1016.42 1016.86 1016.71 1016.42 1016.38 1016.53 1016.97 1017.16 1017.48 1017.02 1016.52 1016.22 1015.88 1015.64 1015.52 1015.52 1015.32 1015.20 1015.18 1015.65 1015.74 1015.63 1015.61 1013.52 1013.20 1013.12 1012.65 1012.54 1012.75 1012.76 1012.99
1020.36 1020.24 1020.15 1020.26 1020.34 1020.21 1020.01 1019.83 1020.13 1020.50 1020.36 1018.73 1017.40 1016.99 1017.01 1016.84 1016.83 1016.54 1016.67 1016.83 1016.93 1017.24 1017.24 1017.06 1016.60 1016.44 1016.06 1015.70 1015.55 1015.56 1015.67 1016.00 1016.58 1017.01 1017.22 1016.33 1016.03 1014.37 1013.39 1012.53 1012.33 1012.07 1012.26 1012.66 1013.31
1020.36 1020.36 1020.31 1020.28 1020.45 1020.13 1020.10 1020.45 1020.98 1020.78 1020.34 1019.27 1018.27 1017.61 1017.48 1017.14 1016.96 1016.92 1016.86 1017.16 1017.36 1017.64 1017.78 1017.21 1016.80 1016.35 1016.16 1015.98 1015.70 1015.93 1016.72 1017.79 1018.38 1018.44 1017.96 1016.94 1016.58 1014.25 1013.14 1012.86 1012.77 1012.48 1012.35 1012.88 1013.58
1020.27 1020.27 1020.28 1020.37 1020.31 1020.26 1020.44 1020.95 1021.21 1021.10 1020.37 1019.32 1018.63 1018.11 1017.78 1017.13 1017.03 1017.06 1017.20 1017.38 1017.21 1017.79 1018.30 1018.09 1017.28 1016.78 1016.45 1016.31 1016.26 1016.38 1017.01 1018.00 1018.58 1018.91 1018.09 1017.28 1016.16 1014.00 1013.38 1013.38 1013.21 1012.93 1012.80 1013.28 1014.03
1020.30 1020.45 1020.49 1020.18 1020.16 1020.54 1020.92 1021.48 1021.62 1020.92 1020.40 1019.94 1018.97 1018.64 1018.12 1017.44 1017.29 1017.32 1017.34 1017.61 1017.56 1017.58 1018.10 1017.98 1017.39 1016.83 1016.63 1016.61 1016.70 1016.52 1017.02 1017.45 1018.22 1018.82 1018.47 1017.01 1015.53 1013.81 1013.72 1013.86 1013.97 1014.05 1014.14 1014.45 1014.76
1020.74 1020.60 1020.68 1020.26 1020.27 1020.68 1021.20 1021.59 1021.15 1020.34 1020.02 1019.82 1019.79 1019.12 1018.81 1018.23 1017.92 1017.62 1017.48 1017.59 1017.61 1017.58 1017.78 1017.88 1017.91 1017.12 1016.84 1016.70 1016.67 1016.74 1017.02 1017.67 1018.41 1018.83 1018.45 1017.08 1016.06 1014.46 1014.30 1014.45 1014.83 1015.26 1015.48 1015.63 1015.83
1020.95 1020.97 1020.43 1020.31 1020.33 1020.71 1021.61 1021.27 1020.47 1019.94 1019.89 1019.79 1019.66 1019.48 1018.95 1018.61 1018.22 1017.96 1017.84 1017.66 1017.88 1017.80 1017.82 1017.92 1018.37 1017.84 1017.51 1017.08 1016.86 1017.25 1017.00 1017.53 1018.16 1018.38 1018.14 1017.56 1015.44 1013.91 1014.00 1014.29 1014.91 1015.60 1016.12 1016.39 1016.80
1021.14 1021.34 1020.71 1020.28 1020.85 1021.28 1021.23 1020.60 1020.26 1019.85 1019.67 1019.63 1019.59 1019.35 1019.05 1018.74 1018.46 1017.95 1017.85 1017.71 1017.79 1018.04 1018.23 1018.40 1018.52 1018.45 1017.57 1016.99 1016.77 1016.79 1017.01 1017.21 1017.99 1018.12 1017.97 1017.45 1015.18 1013.90 1013.98 1014.11 1014.83 1015.88 1016.58 1017.13 1017.49
1021.48 1021.38 1021.01 1020.90 1020.89 1021.10 1020.53 1020.15 1019.95 1019.92 1019.83 1019.69 1019.58 1019.30 1018.97 1019.00 1018.83 1018.21 1017.90 1017.69 1017.87 1018.10 1018.40 1018.76 1018.94 1018.87 1017.69 1017.62 1017.22 1017.01 1016.73 1016.90 1017.50 1017.74 1017.42 1017.17 1015.04 1014.16 1014.16 1014.58 1015.15 1015.99 1016.85 1017.46 1018.02
1021.88 1021.65 1021.26 1021.37 1021.08 1020.59 1020.21 1019.85 1019.54 1019.48 1019.54 1019.57 1019.53 1019.50 1019.26 1018.90 1018.53 1018.35 1018.03 1017.84 1018.10 1018.40 1018.66 1018.91 1019.35 1019.43 1018.96 1018.04 1017.51 1017.24 1016.92 1016.90 1017.12 1017.91 1017.11 1015.83 1014.69 1014.37 1014.61 1015.01 1015.66 1016.31 1016.86 1017.60 1018.22
1021.89 1021.76 1021.32 1021.36 1020.87 1020.52 1020.24 1019.88 1019.54 1019.37 1019.47 1019.44 1019.52 1019.30 1019.35 1019.23 1018.72 1018.50 1018.10 1018.05 1018.30 1018.60 1018.97 1019.27 1019.50 1019.26 1018.51 1017.95 1017.63 1017.10 1016.77 1016.76 1017.18 1016.25 1016.19 1014.73 1014.71 1013.71 1014.01 1014.71 1015.40 1016.19 1017.06 1017.65 1018.22
1022.13 1021.88 1021.61 1021.11 1020.50 1020.28 1020.06 1019.57 1019.16 1018.81 1018.95 1019.23 1019.43 1018.91 1019.08 1019.21 1018.62 1018.41 1018.38 1018.57 1018.53 1019.00 1019.24 1019.53 1019.40 1019.18 1018.56 1017.36 1017.05 1016.73 1015.95 1016.01 1016.02 1015.84 1015.48 1015.08 1014.12 1013.66 1013.72 1014.37 1015.58 1016.09 1016.78 1017.53 1018.25
1022.05 1021.95 1021.66 1021.07 1020.70 1020.49 1019.62 1018.86 1018.60 1018.44 1018.09 1018.08 1018.52 1018.83 1018.85 1018.25 1018.17 1018.12 1018.16 1018.29 1018.43 1018.89 1019.41 1019.74 1019.76 1019.57 1018.45 1017.37 1016.79 1016.00 1014.79 1014.93 1015.06 1014.76 1014.49 1014.47 1013.30 1013.36 1013.84 1014.43 1014.70 1015.57 1016.45 1017.22 1018.06
Wind_Speed
7 7 8 10 11 13 14 16 17 16 13 12 12 12 10 7 2 0 3 6 3 7 7 4 5 4 1 2 3 0 3 5 7 8 5 1 4 1 3 8 3 3 7 11 19
8 8 8 9 9 10 13 15 16 16 15 14 10 12 11 7 3 3 7 7 6 5 3 3 4 6 2 3 3 3 4 7 4 7 4 5 3 7 6 4 5 5 10 19 21
9 9 9 9 9 9 11 13 15 16 15 14 11 9 8 4 2 2 5 6 7 4 2 1 4 2 2 2 2 3 5 3 2 3 3 2 2 1 12 2 6 13 19 20 20
9 9 9 10 9 9 11 12 13 14 14 14 13 10 8 1 3 3 6 8 5 3 3 2 2 1 1 3 3 2 6 3 2 1 2 2 4 2 1 5 8 19 25 20 19
8 8 9 10 10 10 11 11 12 12 12 13 13 13 4 3 2 5 9 6 1 1 1 3 2 2 1 3 2 4 3 2 3 4 5 3 3 3 2 3 15 16 19 19 15
7 7 8 9 10 11 11 11 11 11 10 11 13 12 3 3 4 8 8 2 1 0 3 2 2 4 4 4 3 0 6 4 1 3 3 1 2 2 1 9 15 16 16 16 16
6 7 7 8 10 11 11 12 11 10 10 10 11 4 1 4 4 7 6 2 2 1 0 2 2 2 2 5 1 2 2 0 4 4 5 5 4 3 3 7 16 13 10 12 14
6 6 7 7 8 10 11 12 11 9 10 9 10 3 3 4 3 5 5 4 2 1 3 6 4 1 2 5 5 5 6 4 4 6 4 5 7 5 7 12 11 11 10 11 11
7 7 8 8 8 10 11 13 12 10 9 8 4 2 5 7 4 4 2 3 3 3 4 5 2 0 5 2 4 6 4 3 1 6 3 1 4 5 8 8 10 11 12 12 11
8 8 9 8 8 10 12 13 9 7 3 2 2 3 5 5 4 5 3 3 2 3 5 3 4 3 4 5 4 1 3 1 3 6 2 5 6 2 8 7 10 8 9 12 13
8 8 8 7 8 8 7 4 6 5 6 1 5 2 5 6 1 3 3 4 3 3 3 3 6 2 5 3 2 4 3 1 4 4 5 10 8 7 8 7 8 8 8 11 11
9 8 7 7 7 7 2 5 2 2 6 5 5 4 4 1 3 3 3 4 4 3 4 5 1 5 4 4 4 4 2 5 5 5 7 4 12 5 7 6 10 13 10 10 7
8 7 6 6 5 3 3 2 3 1 0 6 4 3 3 1 3 4 3 4 2 5 3 1 5 5 3 3 1 1 4 4 4 2 1 5 6 5 7 4 4 7 9 7 13
7 7 6 6 3 3 2 5 3 2 5 6 3 3 2 1 3 2 3 1 4 3 5 4 5 4 2 1 0 0 4 4 4 5 5 4 5 6 6 10 8 11 9 13 13
7 6 4 7 2 2 3 5 3 4 7 6 5 1 2 1 3 2 1 2 2 4 4 6 4 4 2 2 1 5 3 4 2 3 3 0 3 8 2 9 10 11 13 12 13
6 5 4 2 2 1 3 3 4 8 4 7 4 4 4 1 2 2 1 1 2 3 2 6 1 2 3 3 3 3 2 6 5 3 3 3 6 7 5 9 7 6 10 11 8
5 6 4 1 1 3 2 4 7 7 3 7 4 3 3 3 2 1 2 3 1 5 4 5 3 3 1 3 2 2 6 3 5 5 6 2 3 10 3 3 5 9 8 7 8
4 4 3 0 2 3 3 6 9 3 4 3 3 7 3 1 3 2 3 3 2 2 1 2 8 3 4 2 2 1 5 6 5 4 5 1 6 9 1 3 4 3 5 8 8
5 2 2 1 2 3 5 7 5 3 2 6 8 3 5 3 1 1 3 2 2 2 2 2 4 2 1 3 1 1 0 2 4 2 2 4 8 7 1 2 5 6 6 7 7
2 2 2 2 3 4 6 3 4 3 1 1 2 2 3 6 5 1 2 2 2 0 2 2 4 2 2 1 2 2 2 2 3 2 4 5 5 8 6 7 3 3 4 4 6
3 3 2 2 3 5 4 5 4 3 3 3 2 3 3 3 2 3 3 2 3 5 2 1 1 5 2 5 5 1 2 2 2 5 3 3 8 6 5 8 9 7 6 6 6
2 2 2 2 4 1 1 3 1 3 3 3 2 4 3 3 4 2 2 4 1 1 3 2 3 4 9 3 3 4 3 4 5 4 3 3 9 2 3 6 8 8 6 5 7
2 2 2 2 3 2 3 2 3 2 3 2 3 4 0 3 2 3 3 1 1 0 1 2 2 5 8 4 2 4 5 5 2 2 6 5 8 2 2 4 5 10 8 8 8
3 1 3 4 1 3 1 4 2 3 3 3 3 1 2 3 5 4 3 1 1 1 1 1 1 6 6 5 3 4 3 5 6 3 2 8 6 4 5 7 6 6 7 8 8
2 4 3 2 3 3 2 2 2 3 3 3 3 5 4 3 3 4 3 4 2 0 0 2 4 4 7 10 6 8 10 7 8 9 10 7 10 7 9 10 9 8 8 9 9
2 2 2 2 1 4 4 5 7 4 7 5 5 3 6 6 7 5 2 3 4 1 1 1 4 2 6 8 5 6 11 10 10 6 9 7 14 6 5 6 7 10 12 10 9
1 2 4 3 1 4 6 7 6 5 5 5 8 3 5 12 8 7 6 4 4 2 4 3 2 2 6 3 7 8 7 7 5 5 8 10 12 4 4 8 14 13 12 11 10
Wind_Direction
321 337 349 0 5 3 1 0 358 357 352 344 344 343 346 359 24 223 255 235 230 263 305 314 358 313 16 286 252 123 114 194 194 168 234 201 143 63 17 106 68 28 147 154 132
319 330 340 352 354 355 354 356 357 356 357 357 354 352 350 2 300 251 266 323 295 309 351 10 329 349 340 243 270 139 150 203 210 185 234 317 155 158 103 128 45 54 97 122 136
327 330 334 342 340 345 344 349 351 357 357 0 359 356 340 355 309 328 272 296 297 300 271 294 278 265 188 214 249 189 187 230 28 174 244 303 58 323 125 197 195 158 142 142 148
327 331 337 336 334 337 331 336 342 352 356 359 358 356 331 6 57 282 284 302 298 291 318 304 342 25 207 205 257 264 227 228 289 264 317 52 305 298 355 175 165 163 152 149 158
325 334 340 336 331 329 327 335 335 342 347 351 349 340 2 7 331 306 321 349 111 108 287 337 341 345 285 213 325 172 270 319 218 192 229 306 94 321 31 44 124 144 151 158 161
336 329 335 337 329 324 323 329 333 334 338 339 344 334 17 45 292 332 344 340 301 83 345 342 299 277 277 266 153 298 256 240 231 288 208 125 328 76 264 130 128 150 164 165 166
336 323 329 335 326 324 323 320 323 329 327 333 341 332 18 240 343 315 322 288 203 226 289 261 282 26 302 300 276 212 221 62 218 205 235 167 302 219 149 144 145 154 171 177 172
336 324 321 324 324 322 319 314 311 313 312 317 328 1 270 260 291 342 349 333 25 283 292 281 260 250 222 295 343 147 90 135 239 150 268 228 231 203 165 148 160 163 175 189 187
335 330 323 319 321 317 315 308 298 298 297 294 1 50 319 315 342 305 20 329 276 330 299 299 2 51 354 38 24 9 174 168 153 215 135 180 252 188 175 169 170 179 182 191 188
337 329 322 318 315 317 314 300 280 318 304 193 234 12 335 307 300 327 296 351 331 342 348 10 40 49 26 55 189 53 109 117 197 204 180 180 256 237 188 179 190 183 190 197 190
338 330 320 316 316 329 353 14 16 353 32 250 281 231 279 287 339 320 326 350 358 36 31 328 56 199 234 214 228 295 323 329 273 205 146 199 229 220 199 181 180 208 202 201 195
338 332 330 322 322 332 32 69 104 206 328 291 263 274 255 278 320 301 28 28 28 339 313 18 285 245 260 283 273 251 271 283 275 230 178 183 230 224 207 202 203 189 211 211 178
337 335 338 333 328 19 77 64 348 65 119 301 260 277 279 67 316 305 30 338 320 340 332 209 277 323 165 282 297 218 171 235 224 36 125 115 294 210 248 236 187 209 207 221 218
333 338 346 324 33 314 39 324 346 105 62 301 340 292 322 278 329 300 357 88 339 312 347 292 324 333 277 157 3 257 266 255 225 133 197 139 248 256 209 228 203 214 206 213 213
325 336 3 42 188 70 283 322 331 64 48 288 298 275 322 356 270 329 324 22 286 292 60 262 320 345 300 245 209 221 282 285 195 133 83 302 86 267 162 236 216 224 216 213 201
331 335 350 47 51 240 313 350 51 45 302 325 307 316 349 221 262 323 7 360 250 316 307 245 255 206 252 290 242 306 338 32 52 74 38 246 132 276 206 219 233 221 212 205 178
343 340 351 107 223 319 14 47 39 80 342 305 302 333 323 265 274 230 260 301 209 41 345 327 284 280 215 304 323 89 59 4 4 8 215 245 55 243 246 309 256 261 228 165 155
350 348 321 286 318 12 60 51 62 291 288 336 314 308 262 296 259 240 308 303 219 56 32 89 334 332 356 259 217 323 141 151 190 191 242 336 237 251 334 352 321 352 132 123 123
336 2 346 269 358 61 72 52 202 213 267 314 321 338 317 319 252 322 215 249 315 204 168 344 276 276 226 324 357 293 253 186 107 357 41 230 285 305 196 37 40 48 81 100 107
74 47 299 321 63 68 74 215 218 216 280 334 323 20 315 316 346 342 303 288 326 63 111 268 306 235 285 4 263 265 160 53 8 196 251 285 276 237 227 219 189 117 104 95 96
53 46 258 28 73 53 113 227 242 221 194 177 228 290 283 281 262 299 306 336 8 316 318 192 149 288 352 194 192 355 238 148 143 156 197 288 265 214 218 210 189 189 171 158 138
94 14 315 72 52 49 143 201 277 244 205 253 202 221 257 306 301 280 268 226 346 269 323 333 172 261 233 281 202 181 220 177 131 236 220 167 277 335 308 208 162 171 153 136 132
115 236 335 24 125 285 263 255 211 220 241 222 250 218 197 271 308 242 290 205 231 70 192 340 300 332 339 359 330 238 208 172 127 81 215 161 260 357 24 129 173 156 157 151 143
84 5 327 41 330 154 198 245 235 197 251 223 255 261 288 255 207 281 285 275 195 249 163 100 199 194 214 231 210 273 261 234 152 134 234 228 278 273 243 202 183 166 157 155 153
74 241 188 254 269 179 150 290 243 240 218 196 260 218 206 282 277 229 240 301 179 49 105 171 248 204 250 253 243 246 244 220 202 224 197 246 225 245 223 207 190 167 161 156 160
151 139 17 260 255 172 188 234 204 226 162 231 210 196 192 214 213 245 205 211 252 168 229 190 274 304 284 274 230 258 249 233 229 229 258 277 277 240 305 122 161 183 171 169 161
323 335 103 266 202 130 216 220 221 171 237 193 196 189 225 240 234 240 219 232 213 208 206 190 230 324 261 334 322 289 233 215 212 209 202 228 246 207 211 207 189 178 179 169 163